Regional Weather Roundup
Issued by NWS

Home | Current Version | Previous Version | Graphics & Text | Print | Product List | Glossary On
Versions: 1 2 3 4 5 6 7 8 9 10 11 12 13 14 15 16 17 18 19 20 21 22 23 24 25 26 27 28 29 30 31 32 33 34 35 36 37 38 39 40 41 42 43 44 45 46 47 48 49 50
968
ASUS45 KTFX 130310
RWRMT
MONTANA REGIONAL WEATHER ROUNDUP
NATIONAL WEATHER SERVICE GREAT FALLS MT
800 PM MST FRI FEB 12 2016

NOTE: "FAIR" INDICATES FEW OR NO CLOUDS BELOW 12000 FEET WITH NO
SIGNIFICANT WEATHER AND/OR OBSTRUCTIONS TO VISIBILITY.

MTZ001>007-043-130400-
WEST OF THE DIVIDE

CITY           SKY/WX    TMP DP  RH WIND       PRES   REMARKS
KALISPELL      FOG       33  33 100 CALM      30.08F VSB 1/4
MISSOULA       CLOUDY    38  36  92 CALM      30.11S
BUTTE          CLOUDY    34  29  82 CALM      30.12F
MULLAN PASS    LGT RAIN  36  31  82 VRB5      30.09F
ANACONDA         N/A     37  34  87 S3        30.10F
DEER LODGE       N/A     37  36  93 CALM      30.12S
HAMILTON         N/A     43  39  87 CALM      30.08F
$$

MTZ008-052>055-130400-
SOUTHWEST MONTANA

CITY           SKY/WX    TMP DP  RH WIND       PRES   REMARKS
BOZEMAN        CLOUDY    37  32  82 S6        30.12S
DILLON         CLOUDY    38  25  59 SW16      30.13F WCI  29
ENNIS          PTCLDY    41  19  42 S13       30.21S
$$

MTZ009-010-012-014-046-048-049-054-130400-
EAST SLOPES AND CENTRAL MONTANA

CITY           SKY/WX    TMP DP  RH WIND       PRES   REMARKS
CUT BANK       CLEAR     43  34  70 W13       29.98F
GREAT FALLS    PTCLDY    44  31  60 SW13      30.00S
MALMSTROM AFB  PTCLDY    45  33  63 SW14      30.00F
HELENA         PTCLDY    39  34  82 CALM      30.07F
CHOTEAU          N/A     50  32  50 W10       29.99F
CONRAD           N/A     29  29 100 CALM      30.02S
$$

MTZ011-013-016-021-045-047-050-051-130400-
NORTH CENTRAL MONTANA

CITY           SKY/WX    TMP DP  RH WIND       PRES   REMARKS
HAVRE          CLOUDY    26  24  92 E10       30.04F WCI  16
LEWISTOWN      CLOUDY    36  31  82 E7        30.02F WCI  30
N BAR RANCH    MOCLDY    37  32  81 W3        30.07F
CHINOOK          N/A     25  21  86 E16G24    30.07S WCI  12
$$

MTZ017>020-022>027-061-062-130400-
NORTHEAST MONTANA

CITY           SKY/WX    TMP DP  RH WIND       PRES   REMARKS
GLASGOW        LGT SNOW  17  13  84 E22       30.20F FOG     WCI   0
JORDAN           N/A     27  25  92 E10       30.15F WCI  17
SIDNEY         CLOUDY    16   7  67 SE10      30.34F WCI   3
WOLF POINT     CLOUDY    20  13  74 E14       30.28F WCI   7
PLENTYWOOD       N/A     10   1  67 SE14      30.32F WCI  -5
POPLAR           N/A     16  10  79 SE15      30.31F WCI   1
$$

MTZ028>42-056>058-130400-
SOUTHCENTRAL AND SOUTHEAST MONTANA

CITY           SKY/WX    TMP DP  RH WIND       PRES   REMARKS
BAKER          LGT SNOW  19  14  81 SE17G25   30.26F WCI   4
BILLINGS       CLOUDY    36  31  82 N8        30.09S WCI  30
LIVINGSTON     CLEAR     50  21  32 W17G26    30.07F
MILES CITY     CLOUDY    31  27  85 SE12      30.18F WCI  22
FORSYTH          N/A     36  28  75 NE8       30.14F WCI  29
LAUREL           N/A     38  29  70 CALM      30.06F
ROUNDUP          N/A     38  29  70 CALM      29.99F
$$

REGIONAL REPORTS...DAKOTAS

CITY           SKY/WX    TMP DP  RH WIND       PRES   REMARKS
WILLISTON      CLOUDY    12   2  64 SE12      30.39F WCI  -2
MINOT          CLOUDY     2  -7  66 SE5       30.51F
DICKINSON      CLOUDY    10   3  73 SE15      30.35F WCI  -7
BEACH          LGT SNOW  14  10  85 SE20      30.31F WCI  -3
CROSBY           N/A      7   0  72 SE9       30.44F WCI  -7
TIOGA            N/A      5   0  78 SE14      30.45F WCI -12
WATFORD CITY     N/A     10   1  67 SE15      30.39F WCI  -6
BISMARCK       CLOUDY     1  -6  72 SE8       30.54F WCI -13
GRAND FORKS    CLOUDY    -4 -12  68 W5        30.68S
FARGO          CLOUDY    -4 -12  68 NW7       30.68S WCI -18
BUFFALO SD       N/A     20  16  84 SE18      30.24R WCI   5
RAPID CITY     CLOUDY    23  21  92 SE13      30.31F WCI  11
$$

REGIONAL REPORTS...WYOMING/IDAHO/WASHINGTON

CITY           SKY/WX    TMP DP  RH WIND       PRES   REMARKS
GILLETTE       CLOUDY    34  29  82 S22       30.14S WCI  22
SHERIDAN       CLOUDY    34  28  79 CALM      30.11F
BUFFALO WY     CLOUDY    37  29  72 S3        30.12F
CODY           CLEAR     37  23  56 CALM      30.11S
YELLOWSTONE LA   N/A     28  19  69 CALM      30.28S
IDAHO FALLS    CLOUDY    21  18  88 NW5       30.27S
SALMON         CLOUDY    30  28  93 CALM      30.20F
BOISE          CLOUDY    42  35  76 CALM      30.22R
SPOKANE        LGT RAIN  43  41  93 W8        30.10S FOG
$$

REGIONAL REPORTS...ALBERTA

CITY           SKY/WX    TMP DP  RH WIND       PRES   REMARKS
EDMONTON       CLOUDY    18  12  79 SE10      29.95F WCI   6
CALGARY        FOG       28  28 100 S6        29.85F VSB 1/4 WCI  22
LETHBRIDGE     PTCLDY    41  34  75 VRB2      29.91F
MEDICINE HAT   CLEAR     28  27  93 E5        29.96F
WATERTON GATE    N/A     43  34  70 SW28G36     N/A
CARDSTON         N/A     43  30  61 S5          N/A
ONEFOUR          N/A     25  23  93 E15         N/A  WCI  12
$$

REGIONAL REPORTS...SASKATCHEWAN

CITY           SKY/WX    TMP DP  RH WIND       PRES   REMARKS
SWIFT CURRENT  CLOUDY    14  12  92 SE25G32   30.09F WCI  -5
REGINA         CLOUDY     9   0  66 SE18      30.36F WCI -10
SASKATOON      MOCLDY     3  -2  78 SE17      30.30F WCI -17
CYPRESS HILLS    N/A     16  14  93 S5          N/A
VAL MARIE        N/A     18  14  86 SE14        N/A  WCI   4
ROCKGLEN         N/A      9   7  92 SE15        N/A  WCI  -8
ASSINIBOIA       N/A     14  10  85 SE10        N/A  WCI   1
$$




USA.gov is the U.S. government's official web portal to all federal, state and local government web resources and services.